[[{"header":{"parameterUnit":"m.s-1","parameterCategory":1,"la1":30.2991,"la2":30.254,"lo1":-89.0895,"lo2":-89.0444,"dy":0.0017,"dx":0.0017,"nx":28,"ny":28,"refTime":"2023-07-24T21:00:00:Z","depth":0,"parameterNumber":2,"parameterNumberName":"U-component_of_WINDS"},"data":[0,0,0,0,0,0,0,0,0,0,0,0,0,0,0,0,0,0,0,0,0,0,0,0,0,0,0,0,0,0,0,0,0,0,0,0,0,0,0,0,0,0,0,0,0,0,0,0,0,0,0,0,0,0,0,0,0,0,2.1198,2.1199,0,2.1292,2.1293,2.1294,2.129,2.1289,2.1287,2.1286,2.1382,2.1385,2.1389,0,0,0,0,0,0,0,0,0,0,0,0,0,2.101,2.1014,2.1198,2.1199,2.12,2.1292,2.1293,2.1295,2.129,2.1289,2.1287,2.1285,2.138,2.1385,2.1389,0,0,0,0,0,0,0,0,0,0,0,0,0,2.1097,2.1015,2.1198,2.1209,2.1211,2.1292,2.1294,2.1295,2.1291,2.1289,2.1287,2.1285,2.1379,2.1384,2.139,2.1465,0,0,2.1407,2.141,0,0,0,0,0,0,0,0,2.1092,2.1104,2.1206,2.1208,2.1211,2.1277,2.1262,2.1352,2.1291,2.126,2.1286,2.1284,2.1348,2.1356,2.1379,2.147,2.1474,2.1408,2.1411,2.1414,2.1415,0,0,0,0,0,0,0,2.1086,2.11,2.1235,2.1208,2.121,2.1208,2.1219,2.1279,2.1314,2.1263,2.1263,2.1274,2.1349,2.1373,2.1381,2.1475,2.1408,2.1413,2.1416,2.1418,2.163,2.1632,0,0,0,0,0,0,2.1078,2.1095,2.1232,2.1238,2.1145,2.1213,2.1225,2.1258,2.1314,2.132,2.1276,2.1274,2.1364,2.1374,2.1384,2.1474,2.1414,2.1419,2.1422,2.1628,2.163,2.1633,0,0,0,0,0,0,2.1074,2.109,2.1228,2.1166,2.1184,2.1219,2.1256,2.1261,2.1285,2.1324,2.133,2.1294,2.1363,2.1376,2.1445,2.1477,2.1422,2.1427,2.1625,2.1629,2.1632,2.1655,0,0,0,0,0,0,2.1069,2.1089,2.1119,2.1167,2.1187,2.1288,2.1258,2.1264,2.1295,2.1293,2.1342,2.1348,2.1363,2.1436,2.145,2.1484,2.1431,2.1622,2.1627,2.1631,2.1651,2.1659,2.1665,0,0,0,0,0,2.1062,2.1122,2.112,2.1137,2.1225,2.129,2.1301,2.1317,2.1297,2.1327,2.1351,2.1347,2.1472,2.1443,2.1459,2.1495,2.162,2.1625,2.163,2.1648,2.1657,2.1665,0,0,0,0,0,0,2.1076,2.1128,2.1127,2.1205,2.1243,2.1289,2.1327,2.1326,2.1371,2.1367,2.1384,2.1395,2.1463,2.1486,2.1454,2.1569,2.1543,2.1552,2.1552,2.156,2.1567,2.1559,2.1436,0,0,0,0,0,2.1088,2.1137,2.118,2.1244,2.1263,2.1292,2.1321,2.1329,2.1369,2.1385,2.1415,2.1454,2.1501,2.1532,2.1579,2.1655,2.1664,2.1687,2.1694,2.17,2.1706,2.1746,2.1756,2.1649,2.1649,2.1649,0,0,2.1114,2.1148,2.1178,2.1248,2.1278,2.1327,2.1305,2.1359,2.1395,2.1393,2.1459,2.1482,2.1526,2.1598,2.1632,2.162,2.1738,2.1706,2.171,2.1713,2.1752,2.1762,2.1771,2.1653,2.1652,2.1651,0,0,2.1184,2.1217,2.1272,2.1303,2.135,2.1368,2.1381,2.1428,2.1443,2.1509,2.1509,2.1552,2.1634,2.1665,2.1691,2.1772,2.1768,2.1787,2.1821,2.1859,2.1868,2.1875,2.1902,2.1911,2.1793,2.1793,2.1793,0,2.121,2.1285,2.1301,2.1354,2.1384,2.1385,2.144,2.1469,2.1529,2.1548,2.1534,2.1636,2.1666,2.1744,2.1764,2.1786,2.18,2.178,2.1865,2.1873,2.188,2.1906,2.1916,2.1795,2.1795,2.1795,2.1795,0,2.1312,2.1364,2.1403,2.146,2.1494,2.1548,2.1571,2.1604,2.1609,2.1629,2.1695,2.1731,2.1783,2.1803,2.1809,2.1881,2.1872,2.1862,2.1836,2.1892,2.1916,2.1926,2.1798,2.1797,2.1796,2.1796,0,0,2.1394,2.1459,2.1473,2.1497,2.1548,2.1588,2.1641,2.1693,2.1719,2.176,2.1803,2.1872,2.1862,2.1892,2.1902,2.1936,2.1994,2.1921,2.1922,2.1931,2.2073,2.2079,2.209,2.1993,2.1995,2.1997,2.2069,0,2.1469,2.1564,2.1579,2.1662,2.1709,2.171,2.1756,2.1791,2.1811,2.1852,2.1873,2.1921,2.1906,2.1923,2.1957,2.198,2.2023,2.1976,2.2032,2.2034,2.2019,2.2104,2.2111,2.2177,2.2079,2.208,2.2081,0,2.1568,2.1611,2.1698,2.1741,2.1761,2.1802,2.1849,2.1889,2.1929,2.194,2.1973,2.1978,2.2032,2.2005,2.2078,2.2045,2.2069,2.2084,2.2087,2.2091,2.206,2.2108,2.2199,2.2208,2.2097,2.2096,2.2095,0,2.1616,2.1696,2.1757,2.1779,2.1831,2.1859,2.1882,2.192,2.1949,2.199,2.2009,2.2056,2.2081,2.2117,2.2134,2.2113,2.2205,2.2179,2.2214,2.2214,2.2232,2.223,2.2326,2.2251,2.2251,2.2251,2.2251,0,2.1696,2.1749,2.1779,2.1817,2.1876,2.1893,2.195,2.1972,2.2005,2.2046,2.2051,2.2089,2.211,2.2151,2.2165,2.2222,2.2234,2.2243,2.2246,2.2242,2.224,2.2257,2.2252,2.2254,2.2253,2.2253,2.2252,0,2.1759,2.1782,2.1849,2.1893,2.1905,2.1945,2.1982,2.2018,2.2037,2.2089,2.2102,2.2131,2.218,2.22,2.226,2.2269,2.2334,2.2334,2.232,2.2321,2.2353,2.2349,2.2461,2.2476,2.2393,2.2394,2.2395,0,2.1808,2.1848,2.1896,2.1924,2.1947,2.1993,2.2022,2.204,2.207,2.2117,2.2147,2.2196,2.2235,2.2312,2.2338,2.2383,2.2383,2.2419,2.239,2.2384,2.2381,2.2378,2.2381,2.2424,2.2425,2.2426,2.2426,0,2.1891,2.19,2.1942,2.1989,2.2024,2.2061,2.2097,2.212,2.2143,2.2177,2.2226,2.2257,2.2317,2.2364,2.2411,2.2433,2.2433,2.2435,2.2445,2.2441,2.243,2.2434,2.2333,2.2432,2.2432,2.2431,2.2431,2.2431,2.1947,2.1982,2.202,2.2067,2.2096,2.2129,2.2165,2.2188,2.2229,2.228,2.2288,2.234,2.2377,2.2439,2.2463,2.2503,2.2494,2.2509,2.2513,2.2516,2.2516,2.2425,2.2512,2.2512,2.2512,2.2512,2.2512,0,2.2028,2.2052,2.2095,2.2145,2.2182,2.2179,2.2219,2.2249,2.2295,2.233,2.2368,2.2424,2.2469,2.2499,2.2544,2.257,2.2571,2.2582,2.2579,2.2583,2.2523,2.2509,2.258,2.258,2.258,2.258,2.258,2.258,2.2074,2.2132,2.2146,2.2218,2.2242,2.2293,2.2316,2.2346,2.2373,2.2435,2.2473,2.2492,2.2524,2.2572,2.2613,2.262,2.2635,2.2646,2.2652,2.2595,2.2588,2.2581,2.2568,2.265,2.265,2.2709,2.2709,2.271]},{"header":{"parameterUnit":"m.s-1","parameterCategory":1,"la1":30.2991,"la2":30.254,"lo1":-89.0895,"lo2":-89.0444,"dy":0.0017,"dx":0.0017,"nx":28,"ny":28,"refTime":"2023-07-24T21:00:00:Z","depth":0,"parameterNumber":3,"parameterNumberName":"V-component_of_WINDS"},"data":[0,0,0,0,0,0,0,0,0,0,0,0,0,0,0,0,0,0,0,0,0,0,0,0,0,0,0,0,0,0,0,0,0,0,0,0,0,0,0,0,0,0,0,0,0,0,0,0,0,0,0,0,0,0,0,0,0,0,3.1069,3.1068,0,3.1034,3.1034,3.1034,3.096,3.0958,3.0957,3.0956,3.092,3.092,3.0921,0,0,0,0,0,0,0,0,0,0,0,0,0,3.1068,3.1069,3.1069,3.1068,3.1068,3.1035,3.1034,3.1034,3.096,3.0958,3.0957,3.0955,3.092,3.092,3.0921,0,0,0,0,0,0,0,0,0,0,0,0,0,3.1055,3.1069,3.1069,3.1027,3.1023,3.1035,3.1034,3.1033,3.0961,3.0958,3.0956,3.0954,3.092,3.092,3.0921,3.097,0,0,3.0923,3.0923,0,0,0,0,0,0,0,0,3.1056,3.1055,3.1034,3.103,3.1026,3.0999,3.1021,3.1012,3.0961,3.0984,3.0956,3.0953,3.0948,3.0946,3.0945,3.0968,3.0967,3.0923,3.0923,3.0924,3.0924,0,0,0,0,0,0,0,3.1057,3.1056,3.1055,3.1034,3.1029,3.101,3.1005,3.1019,3.0979,3.0982,3.0977,3.0974,3.0945,3.0944,3.0943,3.0966,3.0923,3.0924,3.0924,3.0924,3.1025,3.1027,0,0,0,0,0,0,3.1064,3.1057,3.1056,3.1054,3.1035,3.1011,3.1007,3.101,3.0979,3.0972,3.0976,3.097,3.0944,3.0943,3.0942,3.0995,3.0924,3.0924,3.0925,3.1022,3.1025,3.1028,0,0,0,0,0,0,3.1064,3.1065,3.1058,3.1054,3.1052,3.1014,3.1018,3.101,3.1009,3.0974,3.0966,3.0982,3.0942,3.0941,3.0963,3.0993,3.0925,3.0925,3.102,3.1023,3.1026,3.1103,0,0,0,0,0,0,3.1065,3.1065,3.1084,3.1055,3.1052,3.108,3.102,3.1011,3.1011,3.1003,3.0978,3.0971,3.0941,3.0962,3.0963,3.0992,3.0926,3.1017,3.1021,3.1025,3.1097,3.1108,3.1118,0,0,0,0,0,3.1065,3.1107,3.1085,3.1086,3.1075,3.1082,3.108,3.1044,3.1013,3.1031,3.1008,3.0972,3.0989,3.0965,3.0966,3.0995,3.1015,3.102,3.1025,3.1093,3.1106,3.1117,0,0,0,0,0,0,3.1141,3.1103,3.1078,3.1113,3.1101,3.1069,3.1091,3.106,3.1057,3.105,3.1005,3.1,3.1027,3.1013,3.0987,3.1039,3.0996,3.1002,3.1047,3.106,3.107,3.1072,3.0926,0,0,0,0,0,3.1162,3.1171,3.1137,3.1171,3.1166,3.113,3.1131,3.1104,3.1091,3.1085,3.1064,3.1051,3.1053,3.1056,3.1056,3.1095,3.1087,3.1116,3.1126,3.1134,3.1139,3.1156,3.1167,3.1044,3.1044,3.1044,0,0,3.1205,3.1185,3.1194,3.1185,3.1173,3.1182,3.1126,3.1139,3.1145,3.1087,3.1106,3.109,3.1073,3.1103,3.1115,3.1092,3.1171,3.1141,3.1148,3.1148,3.1162,3.1174,3.1184,3.1048,3.1047,3.1047,0,0,3.1287,3.1275,3.13,3.1289,3.1271,3.1246,3.1252,3.1225,3.1212,3.123,3.1186,3.1192,3.1198,3.1186,3.1182,3.1258,3.1224,3.126,3.1312,3.1329,3.1339,3.1347,3.1372,3.1382,3.1265,3.1265,3.1265,0,3.1343,3.1356,3.1317,3.1332,3.1329,3.1276,3.1301,3.1292,3.1275,3.1273,3.1248,3.1252,3.1237,3.1263,3.1281,3.128,3.1284,3.1262,3.1341,3.1349,3.1356,3.1379,3.1389,3.1269,3.1269,3.1269,3.1268,0,3.1424,3.1434,3.1456,3.1441,3.144,3.146,3.1423,3.1427,3.14,3.1377,3.1395,3.1375,3.1369,3.1373,3.1348,3.1394,3.138,3.1349,3.1304,3.1373,3.1394,3.1403,3.1276,3.1274,3.1273,3.1272,0,0,3.1554,3.1516,3.1524,3.1515,3.1491,3.1497,3.1514,3.1508,3.1511,3.1501,3.1513,3.1518,3.1488,3.1482,3.1454,3.147,3.1528,3.1435,3.1434,3.1452,3.1576,3.1599,3.161,3.1506,3.1508,3.1509,3.1577,0,3.163,3.1656,3.1621,3.1655,3.1662,3.1611,3.1625,3.1611,3.1591,3.1593,3.157,3.1573,3.1534,3.153,3.1543,3.1519,3.1553,3.1514,3.1515,3.1515,3.1519,3.1621,3.1646,3.1711,3.1585,3.1586,3.1587,0,3.1722,3.1715,3.175,3.1721,3.1723,3.1736,3.1727,3.173,3.1713,3.1696,3.1689,3.1656,3.1668,3.1626,3.1642,3.1616,3.1614,3.1602,3.1604,3.1601,3.1555,3.162,3.1731,3.174,3.1601,3.1599,3.1599,0,3.1811,3.1811,3.183,3.1825,3.1793,3.1803,3.179,3.177,3.1768,3.176,3.1757,3.1751,3.1747,3.1742,3.1707,3.168,3.1726,3.1681,3.1711,3.1712,3.1722,3.1722,3.1833,3.1725,3.1724,3.1724,3.1724,0,3.1898,3.192,3.1869,3.1882,3.1905,3.1863,3.1887,3.1869,3.1851,3.1858,3.1814,3.1821,3.1775,3.1777,3.175,3.1765,3.1765,3.175,3.1742,3.1753,3.1755,3.1751,3.1744,3.1727,3.1726,3.1726,3.1725,0,3.2,3.1968,3.1985,3.1953,3.1945,3.1964,3.1935,3.1944,3.192,3.1929,3.1929,3.1891,3.1891,3.1855,3.1848,3.1829,3.1856,3.184,3.1862,3.1856,3.1887,3.1884,3.1998,3.201,3.1896,3.1897,3.1898,0,3.2058,3.2073,3.2042,3.2044,3.2033,3.2036,3.2033,3.1992,3.1991,3.1971,3.1982,3.1978,3.1973,3.1974,3.1945,3.1938,3.1921,3.1962,3.192,3.1929,3.1919,3.1918,3.1918,3.197,3.1971,3.1973,3.1974,0,3.2162,3.2144,3.2142,3.2134,3.2132,3.2124,3.2113,3.2116,3.2071,3.2072,3.2071,3.2066,3.2058,3.2053,3.2041,3.2026,3.1992,3.1987,3.1993,3.2004,3.2014,3.2007,3.1883,3.1984,3.1983,3.1983,3.1982,3.1981,3.2241,3.2252,3.2232,3.223,3.2218,3.2208,3.2214,3.219,3.2189,3.2179,3.2155,3.2157,3.2136,3.2116,3.2104,3.2104,3.2084,3.2093,3.2095,3.2098,3.2103,3.2016,3.2102,3.2102,3.2101,3.2101,3.2101,0,3.2341,3.2325,3.2325,3.231,3.2308,3.2277,3.2262,3.2263,3.2265,3.2249,3.2244,3.2242,3.2237,3.2207,3.2199,3.2204,3.2188,3.2203,3.2201,3.2198,3.2123,3.2117,3.2216,3.2216,3.2216,3.2216,3.2216,3.2216,3.2393,3.2409,3.2389,3.2397,3.2381,3.2382,3.2377,3.2367,3.2353,3.2352,3.2348,3.2329,3.2307,3.2296,3.2289,3.2281,3.2278,3.2299,3.2284,3.2215,3.2204,3.2193,3.2187,3.2299,3.2299,3.2359,3.2359,3.236]}]]